Location: *
(37.4917°N, 71.5558°E)
Time: 03:11:34
(UTC+00:00)

PSLV R/B - Pass Details

Date: 09 April 2020
Orbit: 594 x 629 km, 97.9° (Epoch: 31 May)

Event Time Altitude Azimuth Distance (km) Brightness Sun altitude
Rises 23:32:10 0° 4° (N) 2,922 7.4 -14.8°
Reaches altitude 10° 23:34:27 10° 358° (N) 2,013 6.4 -14.4°
Maximum altitude 23:38:35 42° 287° (WNW) 897 4.0 -13.7°
Enters shadow 23:41:39 17° 223° (SW) 1,609 5.1 -13.1°
